TimeCDT,TemperatureF,Dew PointF,Humidity,Sea Level PressureIn,VisibilityMPH,Wind Direction,Wind SpeedMPH,Gust SpeedMPH,PrecipitationIn,Events,Conditions,WindDirDegrees,DateUTC
12:15 AM,30.2,28.4,93,30.04,10.0,North,3.5,-,N/A,,Clear,350,2013-10-27 05:15:00
12:35 AM,30.2,28.4,93,30.03,10.0,Calm,Calm,-,N/A,,Scattered Clouds,0,2013-10-27 05:35:00
12:55 AM,30.2,26.6,86,30.02,10.0,Calm,Calm,-,N/A,,Scattered Clouds,0,2013-10-27 05:55:00
1:15 AM,28.4,26.6,93,30.02,10.0,NNW,3.5,-,N/A,,Clear,340,2013-10-27 06:15:00
1:35 AM,28.4,26.6,93,30.02,10.0,Calm,Calm,-,N/A,,Clear,0,2013-10-27 06:35:00
1:55 AM,28.4,26.6,93,30.01,10.0,Calm,Calm,-,N/A,,Clear,0,2013-10-27 06:55:00
2:15 AM,28.4,26.6,93,30.00,10.0,Calm,Calm,-,N/A,,Clear,0,2013-10-27 07:15:00
2:35 AM,28.4,26.6,93,30.00,10.0,Calm,Calm,-,N/A,,Clear,0,2013-10-27 07:35:00
2:55 AM,28.4,26.6,93,29.99,10.0,Calm,Calm,-,N/A,,Clear,0,2013-10-27 07:55:00
3:15 AM,28.4,26.6,93,29.99,10.0,Calm,Calm,-,N/A,,Clear,0,2013-10-27 08:15:00
3:35 AM,26.6,26.6,100,29.98,10.0,Calm,Calm,-,N/A,,Clear,0,2013-10-27 08:35:00
3:55 AM,26.6,26.6,100,29.97,10.0,Calm,Calm,-,N/A,,Clear,0,2013-10-27 08:55:00
4:15 AM,26.6,24.8,93,29.97,10.0,Calm,Calm,-,N/A,,Clear,0,2013-10-27 09:15:00
4:35 AM,26.6,24.8,93,29.96,10.0,Calm,Calm,-,N/A,,Clear,0,2013-10-27 09:35:00
4:55 AM,26.6,24.8,93,29.96,10.0,Calm,Calm,-,N/A,,Clear,0,2013-10-27 09:55:00
5:14 AM,26.6,24.8,93,29.96,10.0,Calm,Calm,-,N/A,,Clear,0,2013-10-27 10:14:00
5:35 AM,24.8,24.8,100,29.96,10.0,Calm,Calm,-,N/A,,Clear,0,2013-10-27 10:35:00
5:55 AM,26.6,24.8,93,29.96,10.0,Calm,Calm,-,N/A,,Clear,0,2013-10-27 10:55:00
6:15 AM,26.6,24.8,93,29.95,10.0,Calm,Calm,-,N/A,,Clear,0,2013-10-27 11:15:00
6:35 AM,26.6,24.8,93,29.94,10.0,Calm,Calm,-,N/A,,Clear,0,2013-10-27 11:35:00
6:55 AM,26.6,24.8,93,29.94,10.0,Calm,Calm,-,N/A,,Clear,0,2013-10-27 11:55:00
7:15 AM,26.6,24.8,93,29.93,10.0,Calm,Calm,-,N/A,,Clear,0,2013-10-27 12:15:00
7:35 AM,28.4,26.6,93,29.92,10.0,Calm,Calm,-,N/A,,Clear,0,2013-10-27 12:35:00
7:55 AM,26.6,24.8,93,29.91,10.0,Calm,Calm,-,N/A,,Clear,0,2013-10-27 12:55:00
8:15 AM,26.6,24.8,93,29.91,10.0,Calm,Calm,-,N/A,,Clear,0,2013-10-27 13:15:00
8:35 AM,30.2,26.6,86,29.91,10.0,Calm,Calm,-,N/A,,Clear,0,2013-10-27 13:35:00
8:55 AM,33.8,28.4,81,29.90,10.0,Calm,Calm,-,N/A,,Clear,0,2013-10-27 13:55:00
9:15 AM,35.6,30.2,81,29.89,10.0,Calm,Calm,-,N/A,,Clear,0,2013-10-27 14:15:00
9:35 AM,39.2,28.4,65,29.89,10.0,SW,4.6,-,N/A,,Clear,220,2013-10-27 14:35:00
9:55 AM,42.8,28.4,57,29.89,10.0,WSW,8.1,-,N/A,,Clear,240,2013-10-27 14:55:00
10:14 AM,44.6,28.4,53,29.88,10.0,SSW,8.1,-,N/A,,Clear,210,2013-10-27 15:14:00
10:35 AM,46.4,28.4,50,29.87,10.0,SW,8.1,-,N/A,,Clear,230,2013-10-27 15:35:00
10:55 AM,46.4,28.4,50,29.86,10.0,SW,8.1,-,N/A,,Clear,220,2013-10-27 15:55:00
11:15 AM,48.2,28.4,46,29.86,10.0,SSW,6.9,-,N/A,,Clear,210,2013-10-27 16:15:00
11:35 AM,51.8,28.4,41,29.85,10.0,WSW,8.1,-,N/A,,Clear,250,2013-10-27 16:35:00
11:55 AM,53.6,28.4,38,29.84,10.0,SW,6.9,-,N/A,,Clear,220,2013-10-27 16:55:00
12:15 PM,53.6,28.4,38,29.84,10.0,SW,5.8,-,N/A,,Clear,230,2013-10-27 17:15:00
12:35 PM,55.4,28.4,36,29.83,10.0,WSW,8.1,-,N/A,,Clear,250,2013-10-27 17:35:00
12:55 PM,57.2,28.4,33,29.82,10.0,SW,5.8,-,N/A,,Clear,220,2013-10-27 17:55:00
1:15 PM,57.2,28.4,33,29.81,10.0,SSW,5.8,-,N/A,,Clear,210,2013-10-27 18:15:00
1:35 PM,60.8,28.4,29,29.80,10.0,WSW,9.2,-,N/A,,Clear,240,2013-10-27 18:35:00
1:55 PM,60.8,28.4,29,29.79,10.0,WSW,10.4,-,N/A,,Clear,240,2013-10-27 18:55:00
2:15 PM,60.8,28.4,29,29.78,10.0,SW,11.5,-,N/A,,Clear,230,2013-10-27 19:15:00
2:35 PM,62.6,30.2,30,29.79,10.0,WSW,9.2,-,N/A,,Clear,250,2013-10-27 19:35:00
2:55 PM,62.6,30.2,30,29.79,10.0,West,8.1,-,N/A,,Clear,270,2013-10-27 19:55:00
3:15 PM,62.6,30.2,30,29.79,10.0,NNW,8.1,-,N/A,,Clear,330,2013-10-27 20:15:00
3:35 PM,62.6,30.2,30,29.80,10.0,WNW,6.9,-,N/A,,Clear,290,2013-10-27 20:35:00
3:55 PM,62.6,30.2,30,29.81,10.0,NW,6.9,-,N/A,,Clear,310,2013-10-27 20:55:00
4:15 PM,60.8,30.2,31,29.82,10.0,WNW,8.1,-,N/A,,Clear,300,2013-10-27 21:15:00
4:35 PM,60.8,30.2,31,29.83,10.0,WNW,6.9,-,N/A,,Clear,300,2013-10-27 21:35:00
4:55 PM,60.8,30.2,31,29.83,10.0,NW,8.1,-,N/A,,Clear,320,2013-10-27 21:55:00
5:15 PM,57.2,30.2,36,29.85,10.0,North,6.9,-,N/A,,Clear,350,2013-10-27 22:15:00
5:35 PM,57.2,30.2,36,29.86,10.0,NNW,5.8,-,N/A,,Clear,340,2013-10-27 22:35:00
5:55 PM,55.4,30.2,38,29.87,10.0,NNW,5.8,-,N/A,,Clear,340,2013-10-27 22:55:00
6:15 PM,53.6,30.2,41,29.89,10.0,North,5.8,-,N/A,,Clear,350,2013-10-27 23:15:00
6:35 PM,51.8,32.0,47,29.90,10.0,North,4.6,-,N/A,,Clear,360,2013-10-27 23:35:00
6:55 PM,50.0,32.0,50,29.91,10.0,Calm,Calm,-,N/A,,Clear,0,2013-10-27 23:55:00
7:15 PM,48.2,32.0,54,29.93,10.0,North,4.6,-,N/A,,Clear,360,2013-10-28 00:15:00
7:34 PM,48.2,32.0,54,29.94,10.0,North,4.6,-,N/A,,Clear,10,2013-10-28 00:34:00
7:55 PM,48.2,32.0,54,29.96,10.0,NNE,8.1,-,N/A,,Clear,30,2013-10-28 00:55:00
8:15 PM,48.2,30.2,50,29.96,10.0,NNE,9.2,16.1,N/A,,Clear,30,2013-10-28 01:15:00
8:34 PM,46.4,32.0,57,29.97,10.0,NE,6.9,-,N/A,,Clear,40,2013-10-28 01:34:00
8:55 PM,46.4,30.2,53,29.98,10.0,NE,6.9,-,N/A,,Clear,40,2013-10-28 01:55:00
9:15 PM,46.4,30.2,53,29.99,10.0,NNE,8.1,-,N/A,,Clear,30,2013-10-28 02:15:00
9:34 PM,46.4,30.2,53,30.01,10.0,NNE,9.2,16.1,N/A,,Clear,30,2013-10-28 02:34:00
9:55 PM,44.6,30.2,57,30.02,10.0,NNE,12.7,18.4,N/A,,Clear,30,2013-10-28 02:55:00
10:15 PM,44.6,30.2,57,30.03,10.0,NE,12.7,24.2,N/A,,Clear,40,2013-10-28 03:15:00
10:34 PM,44.6,30.2,57,30.05,10.0,NE,10.4,21.9,N/A,,Clear,40,2013-10-28 03:34:00
10:55 PM,44.6,30.2,57,30.07,10.0,NE,11.5,21.9,N/A,,Clear,40,2013-10-28 03:55:00
11:15 PM,42.8,30.2,61,30.08,10.0,NE,9.2,17.3,N/A,,Clear,50,2013-10-28 04:15:00
11:35 PM,42.8,30.2,61,30.09,10.0,NE,5.8,-,N/A,,Clear,50,2013-10-28 04:35:00
11:55 PM,42.8,30.2,61,30.10,10.0,NE,4.6,-,N/A,,Clear,50,2013-10-28 04:55:00